Weather History for Lakeland Region, FL

Change the Weather History Date:

Wednesday, October 1, 2014

  Actual Average Record
Temperature  
Mean Temperature 80 °F -  
Max Temperature 84 °F 83 °F 91 °F (1986)
Min Temperature 75 °F 69 °F 60 °F (2001)
Cooling Degree Days 14    
Growing Degree Days 30 (Base 50)    
Moisture  
Dew Point 75 °F    
Average Humidity 89    
Maximum Humidity 100    
Minimum Humidity 70    
Precipitation  
Precipitation 0.00 in - - ()
Sea Level Pressure  
Sea Level Pressure 29.90 in    
Wind  
Wind Speed 4 mph (East)    
Max Wind Speed 13 mph    
Max Gust Speed -    
Visibility 9 miles    
Events Rain    
Averages and records for this station are not official NWS values.
T = Trace of Precipitation, MM = Missing Value Source: NWS Daily Summary

Daily Weather History Graph

Daily Weather History Graph

Search for Another Location

Airport:

Trip Planner

Search our weather history database for the weather conditions in past years. The results will help you decide how hot, cold, wet, or windy it might be!

Date:

Astronomy

Oct. 01, 2014 Rise Set
Actual Time 7:20 AM EDT 7:14 PM EDT
Civil Twilight 6:57 AM EDT 7:37 PM EDT
Nautical Twilight 6:30 AM EDT 8:04 PM EDT
Astronomical Twilight 6:03 AM EDT 8:31 PM EDT
Moon 1:59 PM EDT (10/1) 12:06 AM EDT (10/1)
Length of Visible Light 12h 39m
Length of Day
11h 53m
Waxing Crescent, 48% of the Moon is Illuminated
Oct 1
Waxing Crescent
Oct 1
First Quarter
Oct 8
Full
Oct 15
Last Quarter
Oct 23
New

Hourly Weather History & Observations

Time (EDT) Temp. Heat Index Dew Point Humidity Pressure Visibility Wind Dir Wind Speed Gust Speed Precip Events Conditions
12:15 AM - - - N/A% 29.87 in 7.0 mi ENE 4.6 mph - N/A   Mostly Cloudy
12:35 AM - - - N/A% 29.87 in 7.0 mi East 3.5 mph - N/A   Overcast
12:55 AM - - - N/A% 29.86 in 1.2 mi Calm Calm - N/A   Overcast
1:15 AM - - - N/A% 29.84 in 1.2 mi Calm Calm - N/A   Overcast
1:35 AM - - - N/A% 29.87 in 5.0 mi Calm Calm - N/A Rain Light Rain
1:55 AM - - - N/A% 29.87 in 10.0 mi East 3.5 mph - N/A   Overcast
2:35 AM - - - N/A% 29.87 in 7.0 mi East 5.8 mph - N/A Rain Rain
2:55 AM - - - N/A% 29.86 in 7.0 mi East 4.6 mph - N/A Rain Rain
3:15 AM - - - N/A% 29.83 in 7.0 mi Calm Calm - N/A   Scattered Clouds
3:35 AM - - - N/A% 29.86 in 7.0 mi East 5.8 mph - N/A   Overcast
3:55 AM - - - N/A% 29.83 in 10.0 mi South 3.5 mph - N/A   Mostly Cloudy
4:15 AM - - - N/A% 29.86 in 10.0 mi East 5.8 mph - N/A   Overcast
4:35 AM - - - N/A% 29.86 in 10.0 mi East 6.9 mph - N/A   Overcast
4:55 AM - - - N/A% 29.86 in 5.0 mi East 6.9 mph - N/A   Light Drizzle
5:15 AM - - - N/A% 29.86 in 10.0 mi East 5.8 mph - N/A   Overcast
5:35 AM - - - N/A% 29.86 in 5.0 mi East 6.9 mph - N/A   Drizzle
5:52 AM 77.0 °F - 73.4 °F 89% 29.87 in 7.0 mi ESE 5.8 mph - N/A   Overcast
6:55 AM 75.2 °F - 73.4 °F 94% 29.89 in 7.0 mi ESE 5.8 mph - N/A Rain Light Rain
8:53 AM 77.0 °F - 73.4 °F 89% 29.92 in 7.0 mi SSE 5.8 mph - N/A   Overcast
9:53 AM 78.8 °F - 75.2 °F 89% 29.93 in 7.0 mi SSW 4.6 mph - N/A   Mostly Cloudy
10:50 AM 80.6 °F 86.2 °F 75.2 °F 84% 29.88 in 10.0 mi WSW 6.9 mph - N/A   Mostly Cloudy
10:53 AM 80.6 °F 86.2 °F 75.2 °F 84% 29.95 in 7.0 mi SW 8.1 mph - N/A   Mostly Cloudy
11:51 AM 82.4 °F 89.5 °F 75.2 °F 79% 29.95 in 10.0 mi West 9.2 mph - N/A   Mostly Cloudy
12:51 PM 84.2 °F 90.9 °F 73.4 °F 70% 29.94 in 10.0 mi West 12.7 mph - N/A   Mostly Cloudy
1:51 PM 84.2 °F 92.3 °F 75.2 °F 74% 29.93 in 10.0 mi NNW 6.9 mph - N/A   Mostly Cloudy
1:52 PM 78.8 °F - 78.8 °F 100% 29.85 in 12.0 mi Calm Calm - N/A   Mostly Cloudy
3:50 PM 80.6 °F 89.3 °F 80.6 °F 100% 29.82 in 15.0 mi NNW 4.6 mph - N/A   Scattered Clouds
4:50 PM 78.8 °F - 78.8 °F 100% 29.82 in 5.0 mi WSW 5.8 mph - N/A Rain Rain
5:50 PM 80.6 °F 86.2 °F 75.2 °F 84% 29.92 in 10.0 mi Calm Calm - N/A Rain Rain
6:51 PM 80.6 °F 88.1 °F 78.8 °F 94% 29.83 in 15.0 mi Calm Calm - N/A   Mostly Cloudy
6:52 PM 80.6 °F 86.2 °F 75.2 °F 84% 29.92 in 15.0 mi Calm Calm - N/A   Scattered Clouds
7:52 PM 80.6 °F 87.1 °F 77.0 °F 89% 29.94 in 15.0 mi NE 4.6 mph - N/A   Mostly Cloudy
7:54 PM 75.2 °F - 75.2 °F 100% 29.85 in 7.0 mi Calm Calm - N/A Rain Light Rain
8:50 PM 78.8 °F - 75.2 °F 89% 29.97 in 10.0 mi NE 5.8 mph - N/A   Mostly Cloudy
9:50 PM 78.8 °F - 75.2 °F 89% 29.98 in 10.0 mi East 4.6 mph - N/A   Mostly Cloudy
10:15 PM 77.0 °F - 73.4 °F 89% 29.99 in 10.0 mi ENE 4.6 mph - N/A   Mostly Cloudy
10:35 PM 75.2 °F - 73.4 °F 94% 29.99 in 10.0 mi Calm Calm - N/A   Scattered Clouds
10:55 PM 75.2 °F - 71.6 °F 89% 30.00 in 10.0 mi NE 3.5 mph - N/A   Clear
11:15 PM 75.2 °F - 71.6 °F 89% 30.00 in 10.0 mi ENE 3.5 mph - N/A   Clear
11:35 PM 75.2 °F - 73.4 °F 94% 30.00 in 10.0 mi Calm Calm - N/A   Scattered Clouds
11:55 PM 75.2 °F - 71.6 °F 89% 30.00 in 10.0 mi Calm Calm - N/A   Scattered Clouds